Regional Weather Roundup
Issued by NWS

Home | Current Version | Previous Version | Graphics & Text | Print | Product List | Glossary On
Versions: 1 2 3 4 5 6 7 8 9 10 11 12 13 14 15 16 17 18 19 20 21 22 23 24 25 26 27 28 29 30 31 32 33 34 35 36 37 38 39 40 41 42 43 44 45 46 47 48 49 50
000
ASUS43 KLMK 271802
RWRKY
KENTUCKY REGIONAL WEATHER ROUNDUP
NATIONAL WEATHER SERVICE LOUISVILLE KY
100 PM EST TUE JAN 27 2015

NOTE "FAIR" INDICATES FEW OR NO CLOUDS BELOW 12,000 FEET
WITH NO SIGNIFICANT WEATHER AND/OR OBSTRUCTIONS TO VISIBILITY.

KYZ001>023-026-027-061>063-070>075-271900-
WESTERN AND SOUTH CENTRAL KENTUCKY

CITY           SKY/WX    TMP DP  RH WIND       PRES   REMARKS
PADUCAH        CLOUDY    43  30  60 N12G20    30.13F
HENDERSON      CLOUDY    36  28  75 NW7       30.12S WCI  30
OWENSBORO      CLOUDY    34  31  89 N7        30.12S WCI  28
HOPKINSVILLE   CLOUDY    38  31  74 N8        30.10S WCI  33
BOWLING GREEN  CLOUDY    35  31  85 VRB3      30.09S
GLASGOW        NOT AVBL
$$

KYZ024-025-028>034-038-045-046-053-271900-
NORTH CENTRAL KENTUCKY

CITY           SKY/WX    TMP DP  RH WIND       PRES   REMARKS
LOUISVILLE/SDF CLOUDY    34  24  67 NE8       30.09S WCI  27
LOUISVILLE/LOU CLOUDY    33  24  69 NE6       30.09S WCI  28
FORT KNOX      CLOUDY    31  26  83 N7        30.07R WCI  24
$$

KYZ035>037-039>044-047>052-055>060-089>105-271900-
NORTHEAST KENTUCKY

CITY           SKY/WX    TMP DP  RH WIND       PRES   REMARKS
LEXINGTON      PTSUNNY   30  20  66 N6        30.05F WCI  24
COVINGTON      MOSUNNY   28  14  55 VRB5      30.07F WCI  23
FRANKFORT      PTSUNNY   31  18  58 VRB3      30.05F
$$

KYZ054-064>069-076>088-106>120-271900-
SOUTHEAST KENTUCKY

CITY           SKY/WX    TMP DP  RH WIND       PRES   REMARKS
JACKSON        SUNNY     32  13  45 VRB3      29.98F
LONDON         CLOUDY    32  22  66 N6        30.01S WCI  26
SOMERSET       NOT AVBL
MIDDLESBORO    NOT AVBL
MONTICELLO     CLOUDY    32  29  89 N3        30.06F
$$




USA.gov is the U.S. government's official web portal to all federal, state and local government web resources and services.